Regional Weather Roundup
Issued by NWS

Home | Current Version | Previous Version | Text Only | Print | Product List | Glossary Off
Versions: 1 2 3 4 5 6 7 8 9 10 11 12 13 14 15 16 17 18 19 20 21 22 23 24 25 26 27 28 29 30 31 32 33 34 35 36 37 38 39 40 41 42 43 44 45 46 47 48 49 50

000
ASUS43 KFSD 100510
RWRSD

WEATHER ROUNDUP FOR SOUTH DAKOTA
NATIONAL WEATHER SERVICE SIOUX FALLS SD
1100 PM CST TUE FEB 09 2016

NOTE: "FAIR" INDICATES FEW OR NO CLOUDS BELOW 12,000 FEET WITH NO
SIGNIFICANT WEATHER AND/OR OBSTRUCTIONS TO VISIBILITY.


SDZ001>005-009-010-012>017-100600-
NORTHWEST AND NORTH CENTRAL SOUTH DAKOTA

CITY           SKY/WX    TMP DP  RH WIND       PRES   REMARKS
BUFFALO          N/A     36  27  69 W13       29.92F
FAITH            N/A     30  22  72 SW8       30.00F WCI  22
MOBRIDGE       CLOUDY    32  23  69 SE7       29.99F WCI  26
$$

SDZ012>016-024>037-041>051-057-063-072>074-100600-
SOUTHWEST AND SOUTH CENTRAL SOUTH DAKOTA

CITY           SKY/WX    TMP DP  RH WIND       PRES   REMARKS
RAPID CTY ARPT CLOUDY    30  25  81 CALM      30.03F
PIERRE         CLOUDY    31  25  78 CALM      30.04F
CUSTER         CLEAR     41  22  46 NW9G20    30.08F
ELLSWORTH AFB  CLOUDY    32  27  80 W6        30.02F WCI  26
PHILIP         CLEAR     29  25  85 W6        30.03F WCI  23
PINE RIDGE     CLEAR     33  27  78 VRB3      30.07F
SPEARFISH      FAIR      45  27  49 W14       30.06F
WINNER         CLOUDY    35  25  66 SW6       30.06F
$$

SDZ004>011-016>023-039-040-100600-
NORTHEAST SOUTH DAKOTA

CITY           SKY/WX    TMP DP  RH WIND       PRES   REMARKS
ABERDEEN       CLOUDY    21  13  71 E9        30.11F WCI  11
WATERTOWN      CLOUDY    17   8  67 SE3       30.10F
BROOKINGS      CLOUDY    18  11  74 E3        30.11F
SISSETON         N/A     12   6  77 NE5       30.16F WCI   4
$$

SDZ017-020-022-023-036>040-048>070-100600-
SOUTHEAST SOUTH DAKOTA

CITY           SKY/WX    TMP DP  RH WIND       PRES   REMARKS
SIOUX FALLS    CLOUDY    19  12  74 E3        30.14S
HURON          CLOUDY    27  18  69 S8        30.10F WCI  19
CHAMBERLAIN    CLOUDY    29  24  80 SE3       30.07F
MITCHELL       CLOUDY    27  18  69 SE6       30.13S WCI  20
YANKTON        CLOUDY    23  14  68 SE3       30.15S
$$

ABBREVIATIONS USED IN REMARKS
   TC - TEMPERATURE IN CELSIUS
  WCI - WIND CHILL INDEX
   HX - HEAT INDEX
  VSB - VISIBILITY




USA.gov is the U.S. government's official web portal to all federal, state and local government web resources and services.